STARLINK-11631, 63195

Orbit data source: Space-Track

STARLINK-11631, 63195 is a payload satellite owned by SpaceX/Seattle (US) in LEO that was launched on Thu, 13 Mar 2025 UTC via an FALCON 9 launch vehicle from the Air Force Eastern Test Range (AFETR). Payload-class satellites include a variety of spacecraft equipped with specific instruments for various scientific and technological missions. These include communications satellites like Starlink; space stations such as the ISS; scientific satellites like the Hubble; Earth observation satellites from companies like Planet Labs, Umbra, and HawkEye 360; GPS; miniature CubeSats for education and research; and military/defense satellites.

Loading next visibility...
Identifier
63195, 2025-048N
Orbit
LEO
Country
Flag of USUS
Related business
Manufacturer
SpaceX/Seattle
Mission
Operational Commercial Communications
Bus & Motor
STARLINK V2MD, Unknown motor
Mass
960 kg wet, ~910 kg dry
Launch date (UTC)
2025-03-13 (1 year ago)
Launch vehicle
FALCON 9
Launch site
Air Force Eastern Test Range (AFETR)
Object type
Payload
Rocket body
Debris
Shape & HBR
Box + 2 Pan, 18.1 m
Radar Cross Section
36.964 m², Large (>1 m²)

Expand to show TLE details & history
Last TLE update: 19 hours ago

TLE from 19 hours ago
0 STARLINK-11631
1 63195U 25048N   26171.10718855  .00154613  00000-0  11861-2 0  9994
2 63195  43.0006  63.0161 0001171 286.9116  73.1624 15.70840191 74627
Epoch: 2026-06-20T02:34Z
TLE epoch observation values (Epoch: 2026-06-20T02:34:21.090Z)
Latitude
0.00002°
Longitude
116.10169°
Altitude
356.037 km
Speed
7.698 km/s
True Right ascension
04h 12m 03s
True Declination
0° 00' 00"
Sunlit
Object was in daylight at epoch
Visualization orbit readout
Latitude
Unknown
Longitude
Unknown
Altitude
Unknown
Speed
Unknown
Apparent Right ascension
Unknown
Apparent Declination
Unknown
Sunlit
N/A
Visualization observer readout
Local Sidereal Time
08:41:49
Azimuth
Unknown
Elevation
Unknown
Doppler factor
Unknown
Orbital elements
Apogee altitude
359.265 km
Perigee altitude
357.687 km
Semi-major axis
6,736.613 km
Eccentricity
0.00012
Inclination
43.0006°
RAAN
63.0161°
Arg. of periapsis
286.9116°
True anomaly
73.17524°
Mean anomaly
73.1624°
Eccentric anomaly
73.16882°
Mean motion
3.92537 °/min
Orbital period
91.71 mins
BSTAR
0.0011861
Loading maneuver chart data...
Computing Atmospheric mass density...
Loading historical data...
Loading historical data...
Loading historical data...
Loading historical data...
Loading historical data...
Loading historical data...
Loading historical data...

Documentation

Showing up to 5 results
|